USA 99 (MILSTAR-1 1)

Last updated on Sun Jun 21 2026 00:03:03 GMT+0000 (Coordinated Universal Time)

1 22988U 94009A 26170.85322422 -.00000236 00000+0 00000+0 0 9995 2 22988 17.6313 27.6798 0000849 225.3426 312.3366 0.98724155 32972
UTC large
Height (km)
Speed (km/s)
/
Latitude / Longitude
Inclination (degrees)
Orbital Period (minutes)
Azimuth
Elevation
Range (km)
Doppler Factor

Next 0 passes for location: London (51.5072 / 0.1276)

No passes found over London.
USA 99 (MILSTAR-1 1)